Home   Weather   Iráklion   Past weeks
Flag for Greece

Past Weather in Iráklion, Crete, Greece — Yesterday and Last 2 Weeks

Now
64 °F

Passing clouds.


Feels Like: 64 °F
Forecast: 76 / 65 °F
Wind: 6 mph from South

Location: Heraklion Airport

Current Time: Oct 20, 2019 at 2:41:11 am

Latest Report: Oct 20, 2019 at 1:50 am


Visibility: N/A

Pressure: 30.07 "Hg

Humidity: 88%

Dew Point: 61 °F

Location of IráklionLocation

Past Weather in Iráklion — Graph

°F

Iráklion Temperature Yesterday

Maximum temperature yesterday: 75 °F (at 1:50 pm)
Minimum temperature yesterday: 64 °F (at 12:50 am)
Average temperature yesterday: 70 °F

High & Low Weather Summary for the Past Weeks

 TemperatureHumidityPressure
High86 °F (Oct 7, 1:50 pm)94% (Oct 8, 4:20 pm)30.15 "Hg (Oct 8, 4:20 pm)
Low61 °F (Oct 14, 6:50 am)37% (Oct 7, 12:50 pm)29.71 "Hg (Oct 7, 6:50 pm)
Average71 °F78%30.01 "Hg
* Reported Oct 5 12:20 am — Oct 20 12:50 am, Iráklion. Weather by CustomWeather, © 2019

Note: Actual official high and low records may vary slightly from our data, if they occured in-between our weather recording intervals... More about our weather records

Advertising

Iráklion Weather History for the Previous 24 Hours

Scroll right to see more
 ConditionsComfort  
Time TempWeatherWind HumidityBarometerVisibility
12:50 am
Sun, Oct 20
64 °FPassing clouds.6 mph94%30.07 "HgN/A
12:20 am64 °FPassing clouds.5 mph94%30.07 "HgN/A
11:20 pm
Sat, Oct 19
66 °FPassing clouds.6 mph94%30.07 "HgN/A
10:50 pm66 °FPassing clouds.5 mph94%30.07 "HgN/A
10:20 pm68 °FPassing clouds.5 mph88%30.07 "HgN/A
9:50 pm68 °FPassing clouds.5 mph88%30.07 "HgN/A
9:20 pm70 °FPassing clouds.5 mph88%30.07 "HgN/A
8:50 pm70 °FPassing clouds.5 mph88%30.07 "HgN/A
8:20 pm72 °FPassing clouds.7 mph88%30.07 "HgN/A
7:50 pm72 °FPassing clouds.6 mph88%30.07 "HgN/A
7:20 pm72 °FPassing clouds.7 mph88%30.04 "HgN/A
6:50 pm72 °FPassing clouds.7 mph88%30.04 "HgN/A
6:20 pm73 °FPassing clouds.5 mph78%30.04 "HgN/A
5:50 pm73 °FPassing clouds.5 mph78%30.04 "HgN/A
5:20 pm75 °FScattered clouds.5 mph74%30.04 "HgN/A
4:50 pm75 °FScattered clouds.5 mph74%30.04 "HgN/A
4:20 pm75 °FPartly sunny.6 mph74%30.04 "HgN/A
3:50 pm75 °FPartly sunny.7 mph74%30.04 "HgN/A
3:20 pm75 °FPartly sunny.6 mph74%30.04 "HgN/A
2:50 pm75 °FPartly sunny.5 mph74%30.04 "HgN/A
2:20 pm75 °FPartly sunny.6 mph69%30.04 "HgN/A
1:50 pm75 °FPartly sunny.5 mph69%30.04 "HgN/A
1:20 pm73 °FPartly sunny.3 mph78%30.07 "HgN/A
12:50 pm73 °FPartly sunny.3 mph78%30.07 "HgN/A
12:20 pm72 °FPartly sunny.3 mph78%30.07 "HgN/A
11:50 am72 °FPartly sunny.7 mph83%30.07 "HgN/A
11:20 am72 °FPartly sunny.3 mph88%30.07 "HgN/A
10:50 am70 °FPartly sunny.No wind94%30.07 "HgN/A
10:20 am72 °FPartly sunny.5 mph78%30.07 "HgN/A
9:50 am70 °FPartly sunny.3 mph88%30.07 "HgN/A
9:20 am70 °FPartly sunny.7 mph83%30.04 "HgN/A
8:50 am68 °FScattered clouds.7 mph88%30.04 "HgN/A
8:20 am68 °FScattered clouds.5 mph83%30.04 "HgN/A
7:50 am68 °FScattered clouds.5 mph83%30.04 "HgN/A
7:20 am64 °FPassing clouds.5 mph94%30.04 "HgN/A
6:50 am64 °FPassing clouds.6 mph94%30.04 "HgN/A
6:20 am66 °FPassing clouds.5 mph88%30.04 "HgN/A
5:20 am66 °FPassing clouds.3 mph94%30.04 "HgN/A
4:50 am66 °FPassing clouds.3 mph94%30.04 "HgN/A
4:20 am66 °FPassing clouds.9 mph78%30.04 "HgN/A
3:50 am66 °FPassing clouds.10 mph78%30.04 "HgN/A
3:20 am66 °FPassing clouds.8 mph78%30.04 "HgN/A
2:50 am66 °FPassing clouds.8 mph78%30.04 "HgN/A
2:20 am64 °FPassing clouds.8 mph83%30.04 "HgN/A
Weather by CustomWeather, © 2019

See weather overview